Home > Weather > Ludwigsfelde > Past weeks

Flag for Germany Past Weather in Ludwigsfelde, Brandenburg, Germany — Yesterday and Last 2 Weeks

Now
75 °F

Sunny.


Feels Like: 78 °F
Forecast: 61 / 79 °F
Wind: 10 mph from Southwest

Location: Berlin-Schoenefeld

Current Time: Jul 30, 2016 at 6:56:38 PM

Latest Report: Jul 30, 2016 at 6:20 PM


Visibility: 10 mi

Pressure: 29.86 "Hg

Humidity: 47%

Dew Point: 54 °F

Location of LudwigsfeldeLocation

Past Weather in Ludwigsfelde — Graph

°F

Ludwigsfelde Temperature Yesterday

Maximum temperature yesterday: 77 °F (at 1:50 PM)
Minimum temperature yesterday: 61 °F (at 5:50 AM)
Average temperature yesterday: 69 °F

High & Low Weather Summary for the Past Weeks

 TemperatureHumidityPressure
High86 °F (Jul 22, 4:20 PM)100% (Jul 25, 5:50 AM)30.24 "Hg (Jul 25, 5:50 AM)
Low45 °F (Jul 16, 4:20 AM)14% (Jul 22, 3:50 PM)29.83 "Hg (Jul 29, 6:20 PM)
Average70 °F66%30.04 "Hg
* Reported Jul 15 5:20 PM — Jul 30 5:50 PM, Ludwigsfelde, Weather by CustomWeather, © 2016

Note: Actual official high and low records may vary slightly from our data, if they occured in-between our weather recording intervals... More about our weather records

Advertising

Ludwigsfelde Weather History for the Previous 24 Hours

Scroll right to see more
 ConditionsComfort  
Time TempWeatherWind HumidityBarometerVisibility
5:50 PM
Sat, Jul 30
77 °FPassing clouds.12 mph44%29.86 "HgN/A
5:20 PM77 °FPassing clouds.10 mph44%29.86 "HgN/A
4:50 PM77 °FPassing clouds.10 mph44%29.86 "HgN/A
4:20 PM77 °FPassing clouds.9 mph47%29.86 "HgN/A
3:50 PM75 °FPassing clouds.12 mph50%29.86 "HgN/A
3:20 PM73 °FScattered clouds.10 mph50%29.86 "HgN/A
2:50 PM72 °FScattered clouds.12 mph57%29.89 "HgN/A
2:20 PM73 °FPartly sunny.12 mph57%29.89 "HgN/A
1:50 PM72 °FBroken clouds.10 mph61%29.89 "HgN/A
1:20 PM70 °FBroken clouds.13 mph64%29.89 "HgN/A
12:50 PM70 °FPartly sunny.13 mph64%29.89 "HgN/A
12:20 PM70 °FPartly sunny.9 mph64%29.89 "HgN/A
11:50 AM70 °FPartly sunny.12 mph60%29.89 "HgN/A
11:20 AM72 °FBroken clouds.13 mph57%29.89 "HgN/A
10:50 AM70 °FPartly sunny.12 mph60%29.89 "HgN/A
10:20 AM70 °FPartly sunny.13 mph64%29.89 "HgN/A
9:50 AM70 °FPartly sunny.12 mph69%29.89 "HgN/A
9:20 AM68 °FBroken clouds.12 mph73%29.89 "HgN/A
8:50 AM66 °FBroken clouds.9 mph78%29.89 "HgN/A
8:20 AM66 °FPassing clouds.9 mph83%29.89 "HgN/A
7:50 AM66 °FSunny.8 mph83%29.89 "Hg10 mi
7:20 AM64 °FPassing clouds.7 mph88%29.86 "HgN/A
6:50 AM64 °FPassing clouds.6 mph88%29.86 "HgN/A
6:20 AM63 °FPassing clouds.3 mph94%29.86 "HgN/A
5:50 AM63 °FPassing clouds.5 mph94%29.86 "HgN/A
5:20 AM63 °FClear.3 mph94%29.86 "Hg10 mi
4:50 AM64 °FPassing clouds.5 mph88%29.86 "HgN/A
4:20 AM63 °FClear.5 mph94%29.86 "Hg10 mi
3:50 AM64 °FClear.8 mph88%29.86 "Hg10 mi
3:20 AM66 °FClear.2 mph83%29.86 "Hg10 mi
2:50 AM66 °FPassing clouds.5 mph83%29.86 "HgN/A
2:20 AM66 °FPartly cloudy.7 mph83%29.86 "HgN/A
1:50 AM66 °FClear.7 mph83%29.86 "Hg10 mi
1:20 AM68 °FLight rain. Clear.7 mph78%29.86 "HgN/A
12:50 AM66 °FClear.5 mph83%29.86 "Hg10 mi
12:20 AM68 °FClear.7 mph73%29.86 "Hg10 mi
11:50 PM
Fri, Jul 29
68 °FClear.5 mph73%29.86 "Hg10 mi
11:20 PM68 °FClear.6 mph73%29.86 "Hg10 mi
10:50 PM68 °FClear.7 mph69%29.86 "Hg10 mi
10:20 PM70 °FClear.7 mph64%29.86 "Hg10 mi
9:50 PM72 °FSunny.7 mph57%29.86 "Hg10 mi
9:20 PM72 °FSunny.7 mph57%29.86 "Hg10 mi
8:50 PM72 °FSunny.5 mph61%29.83 "Hg10 mi
8:20 PM73 °FSunny.3 mph57%29.83 "Hg10 mi
7:50 PM75 °FSunny.5 mph54%29.83 "Hg10 mi
7:20 PM73 °FSunny.5 mph57%29.83 "Hg10 mi
6:50 PM75 °FScattered clouds.5 mph54%29.83 "HgN/A
6:20 PM77 °FScattered clouds.3 mph51%29.83 "HgN/A
Weather by CustomWeather, © 2016

See weather overviewHow to use our weather pages